Regional Weather Roundup
Issued by NWS Cleveland, OH

Home | Current Version | Previous Version | Text Only | Print | Product List | Glossary Off
Versions: 1 2 3 4 5 6 7 8 9 10 11 12 13 14 15 16 17 18 19 20 21 22 23 24 25 26 27 28 29 30 31 32 33 34 35 36 37 38 39 40 41 42 43 44 45 46 47 48 49 50

829
ASUS41 KCLE 191802
RWRCLE
OHIO REGIONAL WEATHER ROUNDUP
NATIONAL WEATHER SERVICE CLEVELAND, OH
100 PM EST FRI JAN 19 2018

NOTE: "FAIR" INDICATES FEW OR NO CLOUDS BELOW 12,000 FEET WITH NO
SIGNIFICANT WEATHER AND/OR OBSTRUCTIONS TO VISIBILITY.

OHZ001>008-015>018-024>027-034-035-043-044-191900-
   NORTHWEST OHIO

CITY           SKY/WX    TMP DP  RH WIND       PRES   REMARKS
DEFIANCE       FAIR      32  17  54 SW16G24   29.96F WCI  21
FINDLAY        FAIR      32  18  56 SW20      29.97F WCI  20
TOLEDO EXPRESS FAIR      33  20  58 SW20G26   29.94F WCI  21
TOLEDO EXEC    FAIR      32  20  61 SW18G25   29.96F WCI  20
LIMA           FAIR      31  18  58 SW15      29.99F WCI  20
$$

OHZ009>014-019>023-028>033-038-089-191900-
   NORTHEAST OHIO

CITY           SKY/WX    TMP DP  RH WIND       PRES   REMARKS
CLE-HOPKINS    FAIR      35  17  47 S15G22    30.01F WCI  25
CLE-LAKEFRONT  FAIR      34  17  50 S17G24    29.98F WCI  23
CUY CO. ARPT   MOSUNNY   36  18  48 SW14      29.98F
LORAIN-ELYRIA  FAIR      32  14  47 SW18      29.99F WCI  20
ASHTABULA      FAIR      32  16  51 S15       29.97F WCI  22
AKRON-CANTON   FAIR      30  15  53 SW16      30.01F WCI  19
WOOSTER        FAIR      31  16  54 SW17G23   30.01F WCI  19
MANSFIELD      FAIR      33  17  51 S16       29.99F WCI  23
YOUNGSTOWN     FAIR      31  15  52 SW13G23   29.99F WCI  21
$$

OHZ042-051>053-060>062-070>072-077>081-191900-
  SOUTHWEST OHIO

CITY           SKY/WX    TMP DP  RH WIND       PRES   REMARKS
CINC-COVINGTON FAIR      34  18  52 SW8       30.11F WCI  27
CINC-LUNKEN    FAIR      36  18  48 SW14      30.14F
HAMILTON       FAIR      37  18  46 VRB7      30.12F
DAYTON         FAIR      31  18  58 S17       30.06F WCI  19
WRIGHT-PAT AFB MOSUNNY   33  10  38 SW14      30.07F WCI  24
DAYTON GENERAL FAIR      33  17  51 SW13G20   30.07F WCI  24
WILMINGTON     FAIR      31  18  58 S13       30.08F WCI  21
$$

OHZ036-037-039>041-045>050-054>059-063>069-073>076-082>088-191900-
  CENTRAL AND SOUTHEAST OHIO

CITY           SKY/WX    TMP DP  RH WIND       PRES   REMARKS
COLUMBUS       FAIR      31  17  56 SW13      30.10F WCI  21
OSU AIRPORT    FAIR      30  18  60 SW13      30.08F WCI  20
BOLTON FIELD   SUNNY     30  18  59 SW16G23   30.09F WCI  19
RICKENBACK AFB FAIR      31  18  57 SW12      30.10F WCI  22
NEWARK         FAIR      31  15  52 S14       30.08F WCI  21
MARION         FAIR      28  16  60 S17       30.02F WCI  16
LANCASTER      FAIR      33  17  51 S9        30.10F WCI  25
ZANESVILLE     FAIR      34  14  43 SW10      30.09F WCI  26
NEW PHILLY     NOT AVBL
$$




USA.gov is the U.S. government's official web portal to all federal, state and local government web resources and services.